[[{"header":{"parameterUnit":"m.s-1","parameterCategory":1,"la1":30.2991,"la2":30.254,"lo1":-89.0895,"lo2":-89.0444,"dy":0.0017,"dx":0.0017,"nx":28,"ny":28,"refTime":"2023-06-21T21:00:00:Z","depth":0,"parameterNumber":2,"parameterNumberName":"U-component_of_WINDS"},"data":[0,0,0,0,0,0,0,0,0,0,0,0,0,0,0,0,0,0,0,0,0,0,0,0,0,0,0,0,0,0,0,0,0,0,0,0,0,0,0,0,0,0,0,0,0,0,0,0,0,0,0,0,0,0,0,0,0,0,2.5239,2.5239,0,2.5234,2.5234,2.5234,2.5037,2.5032,2.5027,2.5022,2.5029,2.5034,2.5039,0,0,0,0,0,0,0,0,0,0,0,0,0,2.5089,2.5093,2.5239,2.5239,2.5239,2.5234,2.5234,2.5234,2.5038,2.5032,2.5026,2.502,2.5027,2.5033,2.5039,0,0,0,0,0,0,0,0,0,0,0,0,0,2.5127,2.5094,2.524,2.5141,2.5132,2.5234,2.5234,2.5234,2.504,2.5032,2.5024,2.5017,2.5025,2.5032,2.504,2.524,0,0,2.5063,2.5066,0,0,0,0,0,0,0,0,2.5125,2.5132,2.5155,2.5148,2.5138,2.5128,2.5183,2.5236,2.5042,2.5075,2.5022,2.5013,2.5069,2.5072,2.5089,2.524,2.524,2.5063,2.5068,2.5071,2.5073,0,0,0,0,0,0,0,2.5122,2.5132,2.5238,2.5156,2.5145,2.51,2.5096,2.5192,2.5116,2.5072,2.5057,2.5059,2.5063,2.5082,2.5087,2.5241,2.5063,2.507,2.5074,2.5077,2.5555,2.5563,0,0,0,0,0,0,2.5132,2.5131,2.5238,2.5237,2.5112,2.5109,2.5105,2.5139,2.5114,2.5102,2.5065,2.505,2.5073,2.5079,2.5087,2.5319,2.5071,2.5078,2.5082,2.5547,2.5557,2.5566,0,0,0,0,0,0,2.513,2.5143,2.5238,2.518,2.5188,2.5119,2.516,2.5143,2.5162,2.5109,2.5095,2.5098,2.5067,2.5076,2.5202,2.5317,2.5081,2.5088,2.5537,2.555,2.5561,2.5786,0,0,0,0,0,0,2.5126,2.5144,2.5217,2.5183,2.5192,2.5352,2.5167,2.5149,2.5174,2.5153,2.5136,2.5126,2.5062,2.5192,2.521,2.5323,2.5094,2.5527,2.5543,2.5557,2.5768,2.5805,2.5836,0,0,0,0,0,2.5121,2.5284,2.5222,2.5236,2.5282,2.5359,2.5364,2.5283,2.5184,2.5259,2.5224,2.5127,2.53,2.5207,2.5225,2.5342,2.5519,2.5538,2.5556,2.5753,2.5798,2.5835,0,0,0,0,0,0,2.5338,2.5277,2.5208,2.5364,2.5367,2.5325,2.5417,2.5333,2.5368,2.5348,2.5249,2.5247,2.5389,2.5377,2.5274,2.5533,2.5393,2.5416,2.5536,2.5578,2.5611,2.5612,2.51,0,0,0,0,0,2.5403,2.5466,2.5411,2.5554,2.5558,2.5488,2.5518,2.5455,2.5456,2.5458,2.5433,2.5441,2.5496,2.5536,2.5585,2.5764,2.5759,2.5854,2.5887,2.5915,2.5938,2.6032,2.6074,2.5627,2.5626,2.5626,0,0,2.554,2.5514,2.5561,2.5597,2.5592,2.5663,2.5491,2.5574,2.5626,2.5472,2.5588,2.557,2.5572,2.5726,2.5792,2.5721,2.6059,2.5939,2.5962,2.5969,2.6055,2.6098,2.6135,2.5639,2.5637,2.5635,0,0,2.5825,2.5811,2.5928,2.5925,2.5918,2.587,2.5898,2.5868,2.5849,2.5962,2.5848,2.591,2.6009,2.6014,2.6031,2.6315,2.6228,2.6334,2.6512,2.6605,2.664,2.6671,2.6774,2.6812,2.6355,2.6356,2.6356,0,2.5997,2.6096,2.6,2.6089,2.6109,2.5966,2.6085,2.6089,2.6101,2.6119,2.6037,2.6156,2.6148,2.6301,2.6369,2.6387,2.6418,2.6337,2.6642,2.6672,2.6699,2.6796,2.6835,2.6369,2.6367,2.6366,2.6365,0,2.6308,2.6379,2.6474,2.6484,2.6514,2.6618,2.654,2.6583,2.6516,2.6477,2.6595,2.6579,2.6622,2.6653,2.6591,2.6797,2.6753,2.6658,2.6515,2.6757,2.6846,2.6882,2.6388,2.6383,2.6379,2.6376,0,0,2.6733,2.6685,2.6722,2.6724,2.6705,2.6759,2.6857,2.6894,2.6933,2.6946,2.7027,2.7112,2.7023,2.7041,2.6978,2.7059,2.7286,2.6954,2.6952,2.7018,2.7515,2.7588,2.7632,2.7226,2.7233,2.7238,2.7515,0,2.701,2.7171,2.7086,2.726,2.7325,2.719,2.7275,2.7274,2.724,2.7292,2.7254,2.7316,2.7193,2.7203,2.7277,2.7243,2.7385,2.7222,2.7305,2.7309,2.7311,2.7679,2.7757,2.8018,2.7549,2.7555,2.7559,0,2.7355,2.7377,2.7557,2.7523,2.7547,2.7625,2.7652,2.7702,2.7699,2.7668,2.7687,2.7603,2.77,2.7555,2.7687,2.7578,2.7606,2.7595,2.7603,2.761,2.7451,2.7698,2.81,2.814,2.7613,2.7609,2.7605,0,2.7649,2.7724,2.784,2.7846,2.781,2.7868,2.7857,2.7844,2.7872,2.7896,2.7913,2.795,2.7971,2.8003,2.7932,2.7833,2.8075,2.7925,2.8055,2.8057,2.8115,2.8113,2.853,2.813,2.8129,2.8128,2.8128,0,2.7968,2.8084,2.7971,2.8044,2.817,2.8071,2.82,2.8174,2.8164,2.823,2.8116,2.8182,2.8083,2.814,2.8086,2.8204,2.8215,2.8194,2.8179,2.8206,2.8209,2.8226,2.8207,2.8139,2.8136,2.8134,2.8133,0,2.832,2.8248,2.8367,2.8321,2.8312,2.8407,2.8369,2.8436,2.8391,2.8477,2.8492,2.8424,2.8485,2.8416,2.8473,2.8436,2.8597,2.8553,2.8597,2.8586,2.872,2.871,2.9165,2.922,2.8783,2.8788,2.8791,0,2.8529,2.8614,2.8576,2.861,2.8604,2.8662,2.8688,2.8594,2.8627,2.8627,2.8695,2.8744,2.8779,2.8883,2.8841,2.8883,2.8842,2.8998,2.8848,2.8872,2.8846,2.8843,2.8852,2.903,2.9035,2.904,2.9043,0,2.8909,2.8869,2.8908,2.8937,2.897,2.8988,2.8998,2.9034,2.8936,2.8979,2.9037,2.9064,2.9119,2.9171,2.9201,2.9191,2.9103,2.909,2.9122,2.9152,2.9175,2.9166,2.8683,2.9081,2.9077,2.9074,2.9072,2.9071,2.9197,2.9266,2.9249,2.9297,2.9294,2.9305,2.9365,2.9326,2.9372,2.9407,2.9349,2.9423,2.9416,2.9446,2.9447,2.9505,2.9438,2.9486,2.9498,2.9512,2.9532,2.9163,2.951,2.9509,2.9507,2.9507,2.9506,0,2.9572,2.9553,2.9598,2.9614,2.9653,2.956,2.9566,2.9605,2.967,2.9669,2.9705,2.9772,2.9821,2.9781,2.9822,2.9876,2.9837,2.9891,2.9887,2.9887,2.9589,2.9557,2.9922,2.9922,2.9922,2.9922,2.9922,2.9922,2.9772,2.9883,2.9841,2.9951,2.9932,3.0,3.0011,3.0022,3.002,3.0099,3.0138,3.011,3.0094,3.0133,3.0174,3.0161,3.0183,3.0252,3.0226,2.9949,2.9908,2.9869,2.9839,3.0257,3.0257,3.0518,3.0521,3.0523]},{"header":{"parameterUnit":"m.s-1","parameterCategory":1,"la1":30.2991,"la2":30.254,"lo1":-89.0895,"lo2":-89.0444,"dy":0.0017,"dx":0.0017,"nx":28,"ny":28,"refTime":"2023-06-21T21:00:00:Z","depth":0,"parameterNumber":3,"parameterNumberName":"V-component_of_WINDS"},"data":[0,0,0,0,0,0,0,0,0,0,0,0,0,0,0,0,0,0,0,0,0,0,0,0,0,0,0,0,0,0,0,0,0,0,0,0,0,0,0,0,0,0,0,0,0,0,0,0,0,0,0,0,0,0,0,0,0,0,2.3037,2.3038,0,2.3072,2.3072,2.3073,2.303,2.3028,2.3027,2.3025,2.3063,2.3065,2.3067,0,0,0,0,0,0,0,0,0,0,0,0,0,2.2935,2.2937,2.3037,2.3038,2.3038,2.3072,2.3072,2.3073,2.303,2.3028,2.3026,2.3025,2.3062,2.3065,2.3068,0,0,0,0,0,0,0,0,0,0,0,0,0,2.2975,2.2937,2.3037,2.3021,2.302,2.3072,2.3072,2.3073,2.3031,2.3028,2.3026,2.3024,2.3061,2.3064,2.3068,2.3138,0,0,2.3079,2.3081,0,0,0,0,0,0,0,0,2.2973,2.2979,2.3023,2.3022,2.3021,2.3044,2.305,2.3095,2.3031,2.3027,2.3025,2.3022,2.3059,2.3062,2.3074,2.314,2.3142,2.308,2.3082,2.3084,2.3085,0,0,0,0,0,0,0,2.297,2.2977,2.3051,2.3024,2.3022,2.3012,2.3015,2.3058,2.3056,2.3027,2.3024,2.3028,2.3058,2.3071,2.3075,2.3142,2.308,2.3083,2.3085,2.3087,2.3264,2.3267,0,0,0,0,0,0,2.2969,2.2975,2.305,2.3052,2.2991,2.3016,2.3019,2.3039,2.3055,2.3055,2.303,2.3026,2.3065,2.307,2.3076,2.3157,2.3084,2.3087,2.3089,2.3262,2.3265,2.3268,0,0,0,0,0,0,2.2967,2.2976,2.3049,2.3013,2.3021,2.302,2.3043,2.3041,2.3054,2.3057,2.3057,2.3044,2.3064,2.307,2.3122,2.3158,2.3089,2.3092,2.3259,2.3263,2.3266,2.3321,0,0,0,0,0,0,2.2964,2.2976,2.3003,2.3014,2.3023,2.3095,2.3045,2.3043,2.306,2.3055,2.307,2.307,2.3062,2.3117,2.3126,2.3161,2.3095,2.3256,2.3261,2.3265,2.3316,2.3326,2.3335,0,0,0,0,0,2.2961,2.3018,2.3004,2.3014,2.3057,2.3097,2.3102,2.3091,2.3063,2.309,2.3092,2.307,2.3152,2.3123,2.3132,2.317,2.3253,2.3259,2.3265,2.3312,2.3324,2.3335,0,0,0,0,0,0,2.3013,2.3019,2.3004,2.3067,2.3081,2.309,2.3123,2.3105,2.3129,2.3123,2.3109,2.3113,2.3167,2.3174,2.3141,2.3237,2.3198,2.3206,2.3231,2.3242,2.3252,2.3249,2.3098,0,0,0,0,0,2.3031,2.3063,2.3067,2.3122,2.313,2.3125,2.3142,2.3132,2.3147,2.3154,2.3159,2.3175,2.3204,2.3224,2.3251,2.3317,2.3318,2.3347,2.3356,2.3364,2.3371,2.3403,2.3416,2.3286,2.3286,2.3286,0,0,2.3071,2.3078,2.3099,2.3132,2.3142,2.3175,2.3131,2.3168,2.3192,2.3159,2.3208,2.3212,2.3229,2.3287,2.3313,2.3294,2.3407,2.3371,2.3377,2.338,2.3411,2.3423,2.3434,2.329,2.3289,2.3288,0,0,2.3158,2.3167,2.3212,2.3223,2.3238,2.3234,2.3245,2.3255,2.3257,2.3305,2.328,2.3308,2.3359,2.3371,2.3384,2.3472,2.3453,2.3482,2.3531,2.3563,2.3573,2.3582,2.3612,2.3623,2.3489,2.3489,2.3489,0,2.3205,2.3253,2.3238,2.3276,2.3291,2.3261,2.3306,2.3317,2.3341,2.3351,2.3329,2.339,2.34,2.3459,2.348,2.3492,2.3503,2.348,2.3573,2.3582,2.359,2.3618,2.363,2.3492,2.3492,2.3491,2.3491,0,2.3308,2.3342,2.3377,2.3398,2.3417,2.3458,2.3449,2.347,2.3457,2.3456,2.3504,2.3513,2.354,2.3554,2.3543,2.3611,2.3598,2.3575,2.3536,2.3606,2.3632,2.3643,2.3497,2.3496,2.3495,2.3494,0,0,2.3432,2.3442,2.3455,2.3463,2.3477,2.3502,2.3541,2.3567,2.3584,2.3601,2.3632,2.3675,2.3652,2.3666,2.3656,2.3685,2.3752,2.3657,2.3657,2.3673,2.3825,2.3842,2.3855,2.3738,2.374,2.3742,2.3823,0,2.3518,2.3585,2.3571,2.3637,2.3666,2.3637,2.3671,2.3682,2.3681,2.3706,2.3705,2.3734,2.3703,2.3711,2.3738,2.3738,2.3782,2.3732,2.3767,2.3769,2.3763,2.3869,2.3887,2.3963,2.3833,2.3835,2.3836,0,2.3628,2.3646,2.3714,2.372,2.3732,2.3762,2.3783,2.3807,2.3819,2.3816,2.383,2.3814,2.3852,2.3812,2.3864,2.383,2.3844,2.3846,2.3848,2.3851,2.3806,2.3873,2.3988,2.3999,2.3853,2.3851,2.385,0,2.3709,2.3751,2.3796,2.3804,2.3813,2.3834,2.3839,2.3848,2.3863,2.3881,2.3891,2.3914,2.3926,2.3944,2.3934,2.3906,2.3986,2.3946,2.3984,2.3984,2.4002,2.4001,2.412,2.4013,2.4012,2.4012,2.4012,0,2.3806,2.3848,2.3832,2.386,2.3906,2.3889,2.3935,2.3936,2.3944,2.3971,2.3948,2.3974,2.3959,2.3984,2.3976,2.4019,2.4025,2.4023,2.402,2.4025,2.4025,2.4033,2.4027,2.4015,2.4015,2.4014,2.4014,0,2.3904,2.3895,2.3942,2.3945,2.3946,2.398,2.3982,2.4008,2.4004,2.4038,2.4045,2.4039,2.4067,2.4058,2.4088,2.4083,2.4136,2.4128,2.4132,2.413,2.4167,2.4163,2.4295,2.431,2.4194,2.4195,2.4196,0,2.3967,2.3998,2.4003,2.4019,2.4024,2.4051,2.4065,2.4049,2.4065,2.4079,2.4103,2.4128,2.4147,2.4192,2.419,2.4213,2.4203,2.4248,2.4207,2.4209,2.4202,2.42,2.4202,2.4256,2.4257,2.4258,2.4259,0,2.4077,2.407,2.4092,2.4111,2.4128,2.4143,2.4156,2.417,2.4155,2.4174,2.4201,2.4215,2.4245,2.4269,2.4289,2.4293,2.4274,2.4272,2.4282,2.4286,2.4287,2.4285,2.4153,2.4269,2.4268,2.4268,2.4267,2.4267,2.4159,2.4184,2.4191,2.4214,2.4222,2.4233,2.4256,2.4254,2.4276,2.4297,2.4287,2.4318,2.4326,2.435,2.4357,2.438,2.4363,2.4378,2.4381,2.4385,2.4389,2.4283,2.4384,2.4384,2.4383,2.4383,2.4383,0,2.4267,2.4269,2.4291,2.4308,2.4326,2.4304,2.4316,2.4333,2.436,2.4369,2.4387,2.4417,2.444,2.4439,2.446,2.4479,2.447,2.4485,2.4483,2.4484,2.4404,2.4392,2.4491,2.4491,2.4491,2.4491,2.4491,2.4491,2.4325,2.4366,2.436,2.4403,2.4405,2.4434,2.4442,2.4452,2.4459,2.4493,2.4511,2.451,2.4514,2.4535,2.4555,2.4554,2.4562,2.458,2.4575,2.4501,2.449,2.448,2.4469,2.4582,2.4582,2.4653,2.4654,2.4655]}]]